ATLAS 5 CENTAUR DEB, 44038

Orbit data source: Space-Track

ATLAS 5 CENTAUR DEB, 44038 is space debris in HEO originally from a launch on Wed, 17 Sep 2014 UTC launched from the Air Force Eastern Test Range (AFETR). Debris objects in space refer to the collection of defunct objects orbiting the Earth. Examples of debris include non-operational satellites, rocket bodies, and fragments generated from explosions, collisions, or faulty payload assembly.

Loading next visibility...
Identifier
44038, 2014-055BY
Orbit
HEO
Country
Flag of USUS
Related business
Flag of USUnited Launch Alliance/Lockheed Martin (US)
Manufacturer
Unknown
Mission
Spacecraft
Bus & Motor
Unknown
Mass
Unknown
Launch date (UTC)
2014-09-17 (12 years ago)
Launch vehicle
Unknown
Launch site
Air Force Eastern Test Range (AFETR)
Object type
Payload
Rocket body
Debris
Shape & HBR
Unknown shape, 1.1 m
Radar Cross Section
Medium (>0.1 m² and <1 m²)

Expand to show TLE details & history
Last TLE update: 6 days ago

TLE from 6 days ago
0 ATLAS 5 CENTAUR DEB
1 44038U 14055BY  26167.23807963 -.00000028  00000-0  00000+0 0  9994
2 44038  19.0300 190.0732 4649734  83.8489 325.4635  1.76611532 49253
Epoch: 2026-06-16T05:42Z
TLE epoch observation values (Epoch: 2026-06-16T05:42:50.080Z)
Latitude
Longitude
-160.10226°
Altitude
15,163.315 km
Speed
4.819 km/s
True Right ascension
12h 40m 28s
True Declination
0° 00' 00"
Sunlit
Object was in daylight at epoch
Visualization orbit readout
Latitude
Unknown
Longitude
Unknown
Altitude
Unknown
Speed
Unknown
Apparent Right ascension
Unknown
Apparent Declination
Unknown
Sunlit
N/A
Visualization observer readout
Local Sidereal Time
21:41:28
Azimuth
Unknown
Elevation
Unknown
Doppler factor
Unknown
Orbital elements
Apogee altitude
35,977.725 km
Perigee altitude
9,090.753 km
Semi-major axis
28,912.376 km
Eccentricity
0.46497
Inclination
19.03°
RAAN
190.0732°
Arg. of periapsis
83.8489°
True anomaly
276.31562°
Mean anomaly
325.4635°
Eccentric anomaly
303.16144°
Mean motion
0.44149 °/min
Orbital period
815.43 mins
BSTAR
0
Loading maneuver chart data...
Computing Atmospheric mass density...

Documentation

Showing up to 5 results
|